0.23-m f/5.2 Schmidt-Cassegrain + CCD.
A32 Panker. Observer H. Denzau. 0.36-m f/5.5 Schmidt-Cassegrain + CCD.
A33 Volkssternwarte Kirchheim. Observer B. Brinkmann. 0.5-m f/3.7 reflector
+ CCD.
A46 Lelekovice. Observer K. Hornoch. 0.35-m f/4.7 reflector + CCD.
D70 Tosa. Observer S. Shimomoto. 0.20-m f/6.3 Schmidt-Cassegrain + CCD.
J78 Murcia. Observer J. Sanchez. 0.25-m f/3.3 Schmidt-Cassegrain + CCD.
J93 Mount Tuffley Observatory, Gloucester. Observer J. Fletcher. 0.25-m
f/5.5 Schmidt-Cassegrain + CCD.
J97 Alginet. Observer T. Climent G. 0.25-m f/4 Schmidt-Cassegrain + CCD.
Orbital elements:
C/2004 Q1 (Tucker)
Epoch 2004 Dec. 21.0 TT = JDT 2453360.5
T 2004 Dec. 6.86664 TT MPC
q 2.0466956 (2000.0) P Q
z +0.0054024 Peri. 32.96917 +0.66277996 -0.68043312
+/-0.0000115 Node 22.13000 +0.36837421 -0.06720385
e 0.9889430 Incl. 56.08643 +0.65193801 +0.72972215
Residuals in seconds of arc
040822 683 1.8- 1.6+ 040910 A32 0.1- 0.1+ 040929 750 0.0 0.4-
040822 683 1.6- 0.9+ 040910 372 0.0 0.4+ 040929 750 0.2- 0.4-
040822 683 (2.1- 0.4+) 040910 372 0.4- 0.1+ 040929 213 0.1+ 0.4+
040823 683 (2.1- 2.2+) 040911 235 1.0+ 0.8+ 040929 213 0.1- 0.1+
040823 683 (4.4- 3.4+) 040911 A41 (4.5- 4.1-) 040929 213 0.2- 0.3+
040823 683 (7.6- 0.7-) 040911 A41 1.2- 0.3+ 040930 349 0.4- 0.0
040824 G72 0.0 0.1- 040911 046 0.3+ 0.4+ 040930 349 0.2- 0.0
040824 G72 0.1- 0.1- 040911 046 0.2+ 0.2+ 040930 349 0.3- 0.1-
040824 G72 0.2- 0.2- 040911 046 0.2+ 0.2+ 040930 349 0.5- 0.2-
040824 G72 0.1- 0.3- 040911 A41 1.0- 0.2+ 041001 J87 0.4- 0.2+
040824 G72 0.7- 0.3+ 040911 046 0.2+ 0.3+ 041001 J87 0.2- 0.0
040824 G72 0.2- 0.3- 040911 G92 0.3+ 0.4+ 041001 J87 0.5- 0.2-
040824 G72 0.0 0.2+ 040911 G92 0.0 0.2+ 041001 J78 0.4+ 0.7+
040824 G72 0.0 0.0 040911 G92 0.2- 0.2+ 041001 J78 0.4+ 0.1+
040824 G72 0.1- 0.1+ 040911 D86 0.9- 0.3- 041001 J78 0.5+ 0.3-
040824 G72 0.1+ 0.0 040911 D86 0.5- 0.5+ 041002 176 0.0 0.3-
040824 413 0.2+ 0.5- 040911 D86 1.4- 0.4- 041002 176 0.1+ 0.4-
040824 413 0.2+ 0.5- 040911 349 0.0 0.1- 041002 176 0.0 0.3-
040824 413 0.2+ 0.4- 040911 349 0.1+ 0.0 041002 176 0.1+ 0.4-
040824 A50 0.3+ 0.2- 040911 379 0.5+ 0.4- 041002 176 0.1+ 0.5-
040824 A50 0.7- 0.7+ 040911 379 0.0 0.0 041002 118 0.0 0.4-
040824 A50 0.6- 0.1+ 040911 379 0.5+ 0.0 041002 118 0.0 0.4-
040824 A50 0.1- 0.2+ 040911 379 0.1- 0.5- 041002 118 0.0 0.3-
040824 A50 0.2+ 0.0 040911 379 0.4- 0.2- 041002 118 0.1- 0.3-
040825 854 0.3- 0.3+ 040911 379 0.2- 0.0 041002 213 0.1+ 0.4+
040825 854 0.2+ 0.2+ 040912 683 0.1- 0.1+ 041002 213 0.1- 0.3+
040825 854 0.3- 0.3+ 040912 683 0.2- 0.0 041002 213 0.1+ 0.4+
040825 H06 0.2+ 0.2- 040912 683 0.0 0.1+ 041002 A06 0.2- 0.3-
040825 H06 0.2+ 0.0 040912 683 0.0 0.0 041002 A06 0.1+ 0.1+
040825 H06 0.0 0.1- 040912 683 0.1- 0.0 041002 A06 0.3- 0.1+
040825 G72 0.0 0.4+ 040912 683 0.1- 0.1+ 041002 A06 0.3- 0.5-
040825 G72 0.3- 0.1+ 040912 683 0.0 0.1- 041003 683 0.1+ 0.1-
040825 G72 0.0 0.3+ 040912 683 0.2- 0.0 041003 683 1.8+ 0.2+
040825 G72 0.3- 0.2+ 040912 683 0.1- 0.2+ 041003 683 0.1+ 0.1+
040825 G72 0.3- 0.1+ 040912 683 0.1- 0.0 041003 104 0.5- 0.2+
040825 G72 0.2+ 0.3+ 040912 683 0.0 0.0 041003 104 0.6- 0.2+
040825 G72 0.2- 0.0 040912 683 0.1- 0.0 041003 104 0.3- 0.2+
040825 G72 0.0 0.3+ 040912 349 0.1+ 0.3- 041003 A46 0.0 0.1+
040825 G72 0.3+ 0.1+ 040912 349 0.0 0.2- 041003 A46 0.0 0.0
040825 G72 0.0 0.1- 040912 349 0.2+ 0.3- 041003 A46 0.2- 0.1-
040825 G72 0.2- 0.0 040912 349 0.0 0.1- 041003 A46 0.1- 0.1-
040825 G72 0.1+ 0.0 040912 D74 0.2+ 0.2+ 041003 A46 0.3- 0.1-
040825 G72 0.1+ 0.0 040912 D74 0.2+ 0.6+ 041003 A46 0.1+ 0.0
040825 G72 0.1- 0.1+ 040912 D74 0.6+ 1.0+ 041004 A13 0.1+ 0.3-
040825 683 0.2- 0.1- 040912 213 0.3- 0.4+ 041004 A13 0.0 0.4-
040825 G72 0.2+ 0.1- 040912 213 0.3- 0.3+ 041004 A13 0.1+ 0.3-
040825 G72 0.1+ 0.0 040912 213 0.2- 0.3+ 041004 A13 0.0 0.2-
040825 G72 0.2+ 0.3+ 040912 213 0.1- 0.4+ 041004 A13 0.2+ 0.3-
040825 G72 0.0 0.1+ 040912 213 0.4- 0.2+ 041006 850 0.2- 0.1+
040825 G72 0.0 0.1+ 040913 834 0.4+ 0.2+ 041006 850 1.2- 1.4+
040825 683 0.2- 0.0 040913 834 0.5- 0.2+ 041006 379 0.3+ 0.4-
040825 683 0.1- 0.2- 040913 834 0.1- 0.2+ 041006 379 0.1- 0.2-
040825 683 0.2- 0.2- 040913 349 0.2- 0.7- 041006 379 0.3+ 0.5-
040825 474 0.1- 0.2- 040913 349 0.4- 0.5- 041006 379 0.0 0.4-
040825 474 0.0 0.2- 040913 349 0.4- 0.4- 041006 379 0.5- 0.1+
040825 474 0.1+ 0.1- 040913 349 0.5- 0.3- 041006 379 0.3- 0.5-
040825 474 0.1+ 0.2- 040913 379 0.0 0.0 041006 D70 1.3- 1.4+
040825 474 0.1+ 0.2- 040913 379 0.4+ 0.7- 041006 D70 1.2- 1.3+
040826 J77 1.0- 0.4+ 040913 379 0.2+ 0.2- 041006 D70 1.1- 1.2+
040826 J77 0.6- 0.5- 040913 379 0.4+ 0.5- 041006 372 0.8+ 0.9-
040826 J77 0.2- 0.1+ 040913 379 0.9+ 0.5- 041006 372 0.4+ 0.7-
040826 H41 0.3+ 0.4- 040913 379 0.4+ 0.4- 041006 349 0.1- 0.1-
040826 H41 0.1+ 0.3- 040913 379 0.8+ 0.6- 041006 349 0.1- 0.1-
040826 H41 0.4+ 0.3- 040913 379 0.3+ 0.6- 041006 360 0.2- 0.2-
040826 H41 0.2+ 0.2- 040914 900 0.3- 0.1+ 041006 360 0.2- 0.1-
040826 H41 0.5+ 0.0 040914 900 0.3- 0.0 041006 349 0.1- 0.2-
040826 H41 0.2+ 0.6- 040914 379 0.5+ 0.0 041006 349 0.0 0.1-
040826 H41 0.3+ 0.5- 040914 379 0.3- 0.4- 041006 A11 0.2- 0.1-
040826 372 0.1- 0.5+ 040914 057 0.4- 0.9- 041006 A11 0.4- 0.1+
040826 372 0.7- 0.5+ 040914 057 0.2- 0.2- 041006 A11 1.3- 0.2+
040826 372 0.6+ 0.1+ 040914 057 0.4- 0.5- 041007 379 0.3- 0.0
040826 372 0.2+ 1.0- 040914 057 0.7- 0.6- 041007 379 0.1- 0.2-
040827 151 0.3+ 0.1- 040914 057 0.7- 0.8- 041007 379 0.1- 0.6-
040827 151 0.2- 0.7+ 040914 057 1.2- 1.0- 041008 683 0.1+ 0.3-
040827 151 0.0 0.0 040915 J93 0.1- 0.2+ 041008 683 0.0 0.3-
040828 J95 0.3+ 0.1- 040915 J93 0.2+ 0.2+ 041008 683 0.1- 0.3-
040828 J95 0.4+ 0.3- 040915 J93 0.2- 0.4+ 041008 415 0.7- 0.2-
040828 J95 0.3+ 0.2- 040915 A32 0.5- 0.5+ 041008 415 0.5- 0.5-
040828 235 0.8- 1.0- 040915 A32 0.8- 0.3+ 041009 415 0.0 0.8-
040828 850 0.6+ 0.0 040915 A32 0.3- 0.2+ 041009 415 0.0 0.7-
040828 850 0.1+ 0.4- 040915 A32 0.5- 0.2+ 041009 415 0.4+ 0.5-
040828 850 (2.2+ 0.5-) 040916 A11 0.5- 0.1- 041009 A46 0.2- 0.1+
040828 683 0.3- 0.0 040916 A11 0.4- 0.1- 041009 A46 0.1+ 0.1-
040828 683 0.1- 0.0 040916 A11 0.5- 0.1- 041009 A46 0.0 0.0
040828 683 0.2- 0.0 040916 A11 0.3- 0.2- 041009 A46 0.2- 0.1+
040828 683 0.3- 0.2- 040916 834 0.0 0.3- 041009 A46 0.0 0.0
040829 130 0.4+ 0.6- 040916 834 0.9- 0.2- 041009 A46 0.1- 0.2-
040829 130 0.3+ 0.4- 040916 834 0.8- 0.1- 041010 704 0.6+ 1.1+
040829 130 0.6+ 0.5- 040916 834 0.8- 0.2- 041010 704 (1.6+ 2.4+)
040829 130 0.4+ 0.3- 040916 355 0.1+ 0.2+ 041010 704 0.5+ 1.5+
040829 213 0.0 0.3- 040916 355 0.0 0.2+ 041010 D70 0.0 0.2+
040829 213 0.3+ 0.7- 040916 355 0.4+ 0.2+ 041010 D70 0.1- 0.2+
040829 213 0.0 0.3- 040916 355 0.2+ 0.0 041010 D70 0.3- 0.2+
040829 213 0.5+ 0.3- 040917 834 0.0 0.8- 041010 A06 0.2+ 0.1+
040829 A11 0.2+ 0.2+ 040917 834 0.4+ 0.7+ 041010 213 0.2+ 0.3+
040829 A11 0.4+ 0.6- 040917 704 (2.6+ 5.1-) 041010 213 0.3+ 0.4+
040829 A11 0.0 0.0 040917 704 1.0+ 0.5+ 041010 A06 0.2+ 0.6-
040829 A11 0.2+ 0.1- 040917 704 0.5+ 0.8+ 041010 213 0.2+ 0.2+
040829 683 0.2- 0.0 040917 704 0.8+ 0.9+ 041010 A06 0.5+ 0.2+
040829 683 0.3- 0.1- 040917 704 (8.0- 7.9+) 041010 A06 0.0 0.2+
040829 683 0.4- 0.0 040917 349 0.3+ 0.2- 041010 J97 0.3+ 0.2+
040830 673 0.8- 0.4+ 040917 349 0.3+ 0.0 041010 J97 0.4+ 0.4+
040830 673 1.0- 0.0 040917 349 0.2+ 0.2- 041010 J78 1.2+ 0.2-
040830 673 1.0- 0.2- 040917 349 0.1+ 0.1- 041010 J78 0.6+ 0.1+
040830 673 1.1- 0.2+ 040917 355 0.1- 0.1- 041010 445 2.0+ 1.5-
040830 D87 (1.5- 2.4-) 040917 355 0.1- 0.1- 041010 J78 0.2+ 0.2+
040830 D87 (0.6- 3.3-) 040917 355 0.0 0.1- 041011 445 1.0+ 0.6-
040831 D74 0.9- 0.2- 040917 355 0.0 0.2- 041011 445 0.4+ 0.7-
040831 D74 0.2+ 0.2+ 040917 355 0.0 0.2- 041011 445 0.3+ 0.7-
040831 D74 0.4- 0.4+ 040917 235 (1.8- 2.1+) 041011 939 0.0 0.3+
040831 349 0.2+ 0.0 040917 A54 2.0- 0.1- 041011 939 0.1- 0.4+
040831 349 0.2+ 0.1+ 040917 A54 0.2- 0.2- 041011 939 0.2- 0.4+
040831 349 0.1- 0.3- 040917 A54 1.3+ 0.7- 041011 750 0.2- 0.3-
040831 349 0.3+ 0.1+ 040917 A54 (1.1+ 2.7-) 041011 750 0.3- 0.3-
040831 D74 (2.7- 8.1+) 040918 A01 (2.2+ 2.9-) 041011 750 0.2- 0.2-
040831 D74 0.9- 0.4- 040918 A01 (2.6+ 3.1-) 041011 367 0.0 0.1-
040831 D74 1.0- 0.2+ 040918 A01 (2.4+ 2.9-) 041011 367 0.2+ 0.1-
040903 415 0.2+ 0.8- 040918 170 0.0 0.1- 041011 367 0.2+ 0.1-
040903 415 0.0 0.8- 040918 704 (3.1+ 5.8-) 041011 367 0.2+ 0.1-
040903 415 0.2- 0.0 040918 704 (2.2+ 4.6-) 041011 367 0.3+ 0.1-
040904 A54 0.5- 1.3- 040918 704 0.4+ 0.6+ 041011 900 0.1- 0.3+
040904 A54 (1.2+ 2.9-) 040918 704 1.1+ 0.4+ 041011 900 0.1- 0.4+
040904 A54 (2.8+ 1.1-) 040918 704 0.3+ 1.2+ 041011 372 0.2+ 0.3-
040904 204 0.3+ 0.2- 040918 704 0.5+ 0.9+ 041011 372 0.6+ 0.3+
040904 204 0.5+ 0.4- 040918 704 0.3+ 0.6+ 041011 A32 0.0 0.3+
040904 204 0.1- 0.3- 040918 704 0.8+ 0.8+ 041011 J78 0.3+ 0.0
040904 048 0.3+ 0.6- 040918 704 (7.1- 7.5+) 041011 A32 0.0 0.1+
040904 048 0.3+ 0.2+ 040918 704 (4.5- 5.7+) 041011 J78 0.4+ 0.1-
040904 048 0.5+ 0.2- 040918 A30 0.1- 0.1- 041011 A32 0.1+ 0.0
040904 048 0.6+ 0.3- 040918 A30 0.1+ 0.2- 041011 J78 0.4+ 0.1+
040904 048 0.5+ 0.2+ 040918 A30 0.1+ 0.4- 041011 A32 0.1+ 0.1+
040904 048 0.5+ 0.2- 040918 048 0.3- 0.3+ 041011 A46 0.1- 0.2+
040905 A54 0.6- 0.0 040918 048 0.3- 0.2+ 041011 A46 0.0 0.1+
040905 A54 0.2+ 0.4- 040918 048 0.2- 0.2+ 041011 A46 0.3- 0.2-
040905 A54 1.0+ 0.3+ 040918 A30 0.1- 0.4- 041011 A46 0.2- 0.2-
040905 A54 1.4+ 1.4+ 040918 048 0.3- 0.2+ 041011 A46 0.4- 0.0
040906 785 0.2- 0.4+ 040918 048 0.2- 0.0 041011 445 0.7+ 1.0-
040906 785 0.5- 0.2- 040918 A54 (1.8+ 3.1-) 041011 A46 0.3- 0.0
040906 785 0.0 0.1+ 040918 A54 0.8- 0.4+ 041011 445 0.7+ 0.9-
040906 683 0.2+ 0.1- 040918 A54 (1.1+ 2.3-) 041011 445 0.8+ 0.9-
040906 683 0.1+ 0.1- 040918 215 0.0 0.2- 041011 445 0.9+ 0.9-
040906 683 0.1+ 0.0 040918 215 0.0 0.3- 041011 445 1.1+ 0.9-
040906 683 0.1- 0.1+ 040918 215 0.0 0.3- 041011 A10 0.1+ 0.1-
040906 683 0.3+ 0.1- 040919 939 0.1- 0.2+ 041011 A10 0.3- 0.1-
040906 683 0.3+ 0.1- 040919 939 0.1+ 0.0 041012 415 0.1+ 0.1-
